Time,TemperatureF,DewpointF,PressureIn,WindDirection,WindDirectionDegrees,WindSpeedMPH,WindSpeedGustMPH,Humidity,HourlyPrecipIn,Conditions,Clouds,dailyrainin,SolarRadiationWatts/m^2,SoftwareType,DateUTC
2013-08-24 00:02:00,58.0,47.0,-100.00,WNW,299,7.0,12.0,67,0.00,,,0.00,0.000000,,2013-08-24 07:02:00,
2013-08-24 00:11:00,58.0,47.0,-100.00,WNW,299,7.0,12.0,67,0.00,,,0.00,0.000000,,2013-08-24 07:11:00,
2013-08-24 00:43:00,57.0,47.0,-100.00,WNW,302,4.0,9.0,69,0.00,,,0.00,0.000000,,2013-08-24 07:43:00,
2013-08-24 00:53:00,57.0,47.0,-100.00,WNW,302,4.0,9.0,69,0.00,,,0.00,0.000000,,2013-08-24 07:53:00,
2013-08-24 01:02:00,57.0,47.0,-100.00,WNW,302,4.0,9.0,69,0.00,,,0.00,0.000000,,2013-08-24 08:02:00,
2013-08-24 01:12:00,57.0,47.0,-100.00,WNW,302,4.0,9.0,69,0.00,,,0.00,0.000000,,2013-08-24 08:12:00,
2013-08-24 01:42:00,56.0,47.0,-100.00,WSW,254,4.0,7.0,71,0.00,,,0.00,0.000000,,2013-08-24 08:42:00,
2013-08-24 01:52:00,56.0,47.0,-100.00,WSW,254,4.0,7.0,71,0.00,,,0.00,0.000000,,2013-08-24 08:52:00,
2013-08-24 02:01:00,56.0,47.0,-100.00,WSW,254,4.0,7.0,71,0.00,,,0.00,0.000000,,2013-08-24 09:01:00,
2013-08-24 02:11:00,56.0,47.0,-100.00,WSW,254,4.0,7.0,71,0.00,,,0.00,0.000000,,2013-08-24 09:11:00,
2013-08-24 02:44:00,56.0,47.0,-100.00,NW,316,4.0,5.0,71,0.00,,,0.00,0.000000,,2013-08-24 09:44:00,
2013-08-24 02:53:00,56.0,47.0,-100.00,NW,316,4.0,5.0,71,0.00,,,0.00,0.000000,,2013-08-24 09:53:00,
2013-08-24 03:03:00,56.0,47.0,-100.00,NW,316,4.0,5.0,71,0.00,,,0.00,0.000000,,2013-08-24 10:03:00,
2013-08-24 03:13:00,56.0,47.0,-100.00,NW,316,4.0,5.0,71,0.00,,,0.00,0.000000,,2013-08-24 10:13:00,
2013-08-24 03:42:00,54.0,46.0,-100.00,NNW,343,3.0,5.0,75,0.00,,,0.00,0.000000,,2013-08-24 10:42:00,
2013-08-24 03:53:00,54.0,46.0,-100.00,NNW,343,3.0,5.0,75,0.00,,,0.00,0.000000,,2013-08-24 10:53:00,
2013-08-24 04:02:00,54.0,46.0,-100.00,NNW,343,3.0,5.0,75,0.00,,,0.00,0.000000,,2013-08-24 11:02:00,
2013-08-24 04:11:00,54.0,46.0,-100.00,NNW,343,3.0,5.0,75,0.00,,,0.00,0.000000,,2013-08-24 11:11:00,
2013-08-24 04:42:00,52.0,46.0,-100.00,ESE,109,0.0,4.0,80,0.00,,,0.00,0.000000,,2013-08-24 11:42:00,
2013-08-24 04:52:00,52.0,46.0,-100.00,ESE,109,0.0,4.0,80,0.00,,,0.00,0.000000,,2013-08-24 11:52:00,
2013-08-24 05:02:00,52.0,46.0,-100.00,ESE,109,0.0,4.0,80,0.00,,,0.00,0.000000,,2013-08-24 12:02:00,
2013-08-24 05:11:00,52.0,46.0,-100.00,ESE,109,0.0,4.0,80,0.00,,,0.00,0.000000,,2013-08-24 12:11:00,
2013-08-24 05:42:00,52.0,47.0,-100.00,SSE,156,3.0,4.0,83,0.00,,,0.00,0.000000,,2013-08-24 12:42:00,
2013-08-24 05:52:00,52.0,47.0,-100.00,SSE,156,3.0,4.0,83,0.00,,,0.00,0.000000,,2013-08-24 12:52:00,
2013-08-24 06:02:00,52.0,47.0,-100.00,SSE,156,3.0,4.0,83,0.00,,,0.00,0.000000,,2013-08-24 13:02:00,
2013-08-24 06:11:00,52.0,47.0,-100.00,SSE,156,3.0,4.0,83,0.00,,,0.00,0.000000,,2013-08-24 13:11:00,
2013-08-24 06:42:00,52.0,48.0,-100.00,NW,313,1.0,4.0,85,0.00,,,0.00,0.000000,,2013-08-24 13:42:00,
2013-08-24 06:52:00,52.0,48.0,-100.00,NW,313,1.0,4.0,85,0.00,,,0.00,0.000000,,2013-08-24 13:52:00,
2013-08-24 07:02:00,52.0,48.0,-100.00,NW,313,1.0,4.0,85,0.00,,,0.00,0.000000,,2013-08-24 14:02:00,
2013-08-24 07:11:00,52.0,48.0,-100.00,NW,313,1.0,4.0,85,0.00,,,0.00,0.000000,,2013-08-24 14:11:00,
2013-08-24 07:42:00,54.0,47.0,-100.00,SE,136,3.0,5.0,78,0.00,,,0.00,63.000000,,2013-08-24 14:42:00,
2013-08-24 07:52:00,54.0,47.0,-100.00,SE,136,3.0,5.0,78,0.00,,,0.00,63.000000,,2013-08-24 14:52:00,
2013-08-24 08:01:00,54.0,47.0,-100.00,SE,136,3.0,5.0,78,0.00,,,0.00,63.000000,,2013-08-24 15:01:00,
2013-08-24 08:11:00,54.0,47.0,-100.00,SE,136,3.0,5.0,78,0.00,,,0.00,63.000000,,2013-08-24 15:11:00,
2013-08-24 08:54:00,60.0,49.0,-100.00,East,84,3.0,5.0,68,0.00,,,0.00,262.000000,,2013-08-24 15:54:00,
2013-08-24 09:04:00,60.0,49.0,-100.00,East,84,3.0,5.0,68,0.00,,,0.00,262.000000,,2013-08-24 16:04:00,
2013-08-24 09:42:00,62.0,48.0,-100.00,NW,315,4.0,5.0,60,0.00,,,0.00,411.000000,,2013-08-24 16:42:00,
2013-08-24 09:53:00,62.0,48.0,-100.00,NW,315,4.0,5.0,60,0.00,,,0.00,411.000000,,2013-08-24 16:53:00,
2013-08-24 10:02:00,62.0,48.0,-100.00,NW,315,4.0,5.0,60,0.00,,,0.00,411.000000,,2013-08-24 17:02:00,
2013-08-24 10:12:00,62.0,48.0,-100.00,NW,315,4.0,5.0,60,0.00,,,0.00,411.000000,,2013-08-24 17:12:00,
2013-08-24 10:42:00,66.0,45.0,-100.00,North,358,6.0,9.0,46,0.00,,,0.00,608.000000,,2013-08-24 17:42:00,
2013-08-24 10:52:00,66.0,45.0,-100.00,North,358,6.0,9.0,46,0.00,,,0.00,608.000000,,2013-08-24 17:52:00,
2013-08-24 11:02:00,66.0,45.0,-100.00,North,358,6.0,9.0,46,0.00,,,0.00,608.000000,,2013-08-24 18:02:00,
2013-08-24 11:13:00,66.0,45.0,-100.00,North,358,6.0,9.0,46,0.00,,,0.00,608.000000,,2013-08-24 18:13:00,
2013-08-24 11:42:00,70.0,46.0,-100.00,North,11,6.0,10.0,43,0.00,,,0.00,789.000000,,2013-08-24 18:42:00,
2013-08-24 11:53:00,70.0,46.0,-100.00,North,11,6.0,10.0,43,0.00,,,0.00,789.000000,,2013-08-24 18:53:00,
2013-08-24 12:01:00,70.0,46.0,-100.00,North,11,6.0,10.0,43,0.00,,,0.00,789.000000,,2013-08-24 19:01:00,
2013-08-24 12:12:00,70.0,46.0,-100.00,North,11,6.0,10.0,43,0.00,,,0.00,789.000000,,2013-08-24 19:12:00,
2013-08-24 12:42:00,72.0,46.0,-100.00,NW,316,8.0,14.0,39,0.00,,,0.00,923.000000,,2013-08-24 19:42:00,
2013-08-24 12:52:00,72.0,46.0,-100.00,NW,316,8.0,14.0,39,0.00,,,0.00,923.000000,,2013-08-24 19:52:00,
2013-08-24 13:02:00,72.0,46.0,-100.00,NW,316,8.0,14.0,39,0.00,,,0.00,923.000000,,2013-08-24 20:02:00,
2013-08-24 13:11:00,72.0,46.0,-100.00,NW,316,8.0,14.0,39,0.00,,,0.00,923.000000,,2013-08-24 20:11:00,
2013-08-24 13:42:00,73.0,47.0,-100.00,WNW,289,9.0,16.0,40,0.00,,,0.00,811.000000,,2013-08-24 20:42:00,
2013-08-24 13:52:00,73.0,47.0,-100.00,WNW,289,9.0,16.0,40,0.00,,,0.00,811.000000,,2013-08-24 20:52:00,
2013-08-24 14:02:00,73.0,47.0,-100.00,WNW,289,9.0,16.0,40,0.00,,,0.00,811.000000,,2013-08-24 21:02:00,
2013-08-24 14:11:00,73.0,47.0,-100.00,WNW,289,9.0,16.0,40,0.00,,,0.00,811.000000,,2013-08-24 21:11:00,
2013-08-24 14:43:00,75.0,47.0,-100.00,WNW,288,13.0,19.0,37,0.00,,,0.00,835.000000,,2013-08-24 21:43:00,
2013-08-24 14:55:00,75.0,47.0,-100.00,WNW,288,13.0,19.0,37,0.00,,,0.00,835.000000,,2013-08-24 21:55:00,
2013-08-24 15:04:00,75.0,47.0,-100.00,WNW,288,13.0,19.0,37,0.00,,,0.00,835.000000,,2013-08-24 22:04:00,
2013-08-24 15:13:00,75.0,47.0,-100.00,WNW,288,13.0,19.0,37,0.00,,,0.00,835.000000,,2013-08-24 22:13:00,
2013-08-24 15:43:00,74.0,45.0,-100.00,NNW,329,11.0,17.0,36,0.00,,,0.00,877.000000,,2013-08-24 22:43:00,
2013-08-24 15:53:00,74.0,45.0,-100.00,NNW,329,11.0,17.0,36,0.00,,,0.00,877.000000,,2013-08-24 22:53:00,
2013-08-24 16:03:00,74.0,45.0,-100.00,NNW,329,11.0,17.0,36,0.00,,,0.00,877.000000,,2013-08-24 23:03:00,
2013-08-24 16:12:00,74.0,45.0,-100.00,NNW,329,11.0,17.0,36,0.00,,,0.00,877.000000,,2013-08-24 23:12:00,
2013-08-24 16:43:00,73.0,41.0,-100.00,WNW,294,10.0,18.0,32,0.00,,,0.00,375.000000,,2013-08-24 23:43:00,
2013-08-24 16:53:00,73.0,41.0,-100.00,WNW,294,10.0,18.0,32,0.00,,,0.00,375.000000,,2013-08-24 23:53:00,
2013-08-24 17:01:00,73.0,41.0,-100.00,WNW,294,10.0,18.0,32,0.00,,,0.00,375.000000,,2013-08-25 00:01:00,
2013-08-24 17:11:00,73.0,41.0,-100.00,WNW,294,10.0,18.0,32,0.00,,,0.00,375.000000,,2013-08-25 00:11:00,
2013-08-24 17:42:00,71.0,41.0,-100.00,NW,313,5.0,16.0,34,0.00,,,0.00,333.000000,,2013-08-25 00:42:00,
2013-08-24 17:52:00,71.0,41.0,-100.00,NW,313,5.0,16.0,34,0.00,,,0.00,333.000000,,2013-08-25 00:52:00,
2013-08-24 18:01:00,71.0,41.0,-100.00,NW,313,5.0,16.0,34,0.00,,,0.00,333.000000,,2013-08-25 01:01:00,
2013-08-24 18:11:00,71.0,41.0,-100.00,NW,313,5.0,16.0,34,0.00,,,0.00,333.000000,,2013-08-25 01:11:00,
2013-08-24 18:42:00,60.0,47.0,-100.00,SSE,150,8.0,17.0,63,0.02,,,0.02,44.000000,,2013-08-25 01:42:00,
2013-08-24 18:52:00,60.0,47.0,-100.00,SSE,150,8.0,17.0,63,0.02,,,0.02,44.000000,,2013-08-25 01:52:00,
2013-08-24 19:02:00,60.0,47.0,-100.00,SSE,150,8.0,17.0,63,0.02,,,0.02,44.000000,,2013-08-25 02:02:00,
2013-08-24 19:11:00,60.0,47.0,-100.00,SSE,150,8.0,17.0,63,0.02,,,0.02,44.000000,,2013-08-25 02:11:00,
2013-08-24 19:42:00,57.0,52.0,-100.00,West,268,11.0,19.0,83,0.03,,,0.05,35.000000,,2013-08-25 02:42:00,
2013-08-24 19:52:00,57.0,52.0,-100.00,West,268,11.0,19.0,83,0.03,,,0.05,35.000000,,2013-08-25 02:52:00,
2013-08-24 20:02:00,57.0,52.0,-100.00,West,268,11.0,19.0,83,0.03,,,0.05,35.000000,,2013-08-25 03:02:00,
2013-08-24 20:11:00,57.0,52.0,-100.00,West,268,11.0,19.0,83,0.03,,,0.05,35.000000,,2013-08-25 03:11:00,
2013-08-24 20:14:00,56.0,52.0,-100.00,WSW,249,2.0,12.0,86,0.00,,,0.05,14.000000,,2013-08-25 03:14:00,
2013-08-24 20:44:00,56.0,52.0,-100.00,WSW,249,2.0,12.0,86,0.00,,,0.05,14.000000,,2013-08-25 03:44:00,
2013-08-24 20:54:00,56.0,52.0,-100.00,WSW,249,2.0,12.0,86,0.00,,,0.05,14.000000,,2013-08-25 03:54:00,
2013-08-24 21:02:00,-999.0,-99.9,-100.00,WSW,249,2.0,12.0,-999,-99.99,,,-99.99,14.000000,,2013-08-25 04:02:00,
2013-08-24 21:44:00,55.0,54.0,-100.00,ESE,110,8.0,10.0,95,0.00,,,0.05,0.000000,,2013-08-25 04:44:00,
2013-08-24 21:54:00,55.0,54.0,-100.00,ESE,110,8.0,10.0,95,0.00,,,0.05,0.000000,,2013-08-25 04:54:00,
2013-08-24 22:03:00,55.0,54.0,-100.00,ESE,110,8.0,10.0,95,0.00,,,0.05,0.000000,,2013-08-25 05:03:00,
2013-08-24 22:12:00,55.0,54.0,-100.00,ESE,110,8.0,10.0,95,0.00,,,0.05,0.000000,,2013-08-25 05:12:00,
2013-08-24 22:42:00,55.0,52.0,-100.00,SSE,160,4.0,9.0,89,0.00,,,0.05,0.000000,,2013-08-25 05:42:00,
2013-08-24 22:52:00,55.0,52.0,-100.00,SSE,160,4.0,9.0,89,0.00,,,0.05,0.000000,,2013-08-25 05:52:00,
2013-08-24 23:03:00,55.0,52.0,-100.00,SSE,160,4.0,9.0,89,0.00,,,0.05,0.000000,,2013-08-25 06:03:00,
2013-08-24 23:12:00,55.0,52.0,-100.00,SSE,160,4.0,9.0,89,0.00,,,0.05,0.000000,,2013-08-25 06:12:00,
2013-08-24 23:43:00,55.0,52.0,-100.00,North,359,1.0,7.0,90,0.00,,,0.05,0.000000,,2013-08-25 06:43:00,
2013-08-24 23:52:00,55.0,52.0,-100.00,North,359,1.0,7.0,90,0.00,,,0.05,0.000000,,2013-08-25 06:52:00,